Date String (YYYY-MM-DD hh:mm:ss) UTC,Instrument flags,absolute air pressure of the measurement (hPa),sample flow rate (lpm),inlet stack bypass flow (lpm),air temperature of the measurement (°C),ambient temperature measured by the external sensor (°C),aerosol sample conditioner tube jacket temperature (°C),OPC LED temperature (°C),internal box temperature (°C),relative humidity of the measurement (%),span deviation,mass concentration of particles derived from Lorenz-Mie calculation of OPC scattering (μg/m³),mass concentration of particles derived from Lorenz-Mie calculation of OPC scattering (μg/m³),mass concentration of particles derived from Lorenz-Mie calculation of OPC scattering (μg/m³)
DateTimeUTC,F1_M11,P_M11,Q1_M11,Q2_M11,T1_M11,T2_M11,T3_M11,T4_M11,T5_M11,U1_M11,ZSPAN_M11,X0_M11,X2_M11,X1_M11
2023-10-29 12:00:00,SystemResetWarning,0836.6,4.99,000.00,021.8,020.6,000.0,030.2,023.3,12.7,-001.7,0009.56,0007.75,0007.56
2023-10-29 12:01:00,SystemResetWarning,0836.6,5.00,000.00,021.8,020.6,000.0,030.2,023.3,12.7,-001.3,0009.72,0007.83,0007.62
2023-10-29 12:02:00,SystemResetWarning,0836.6,5.00,000.00,021.8,020.5,000.0,030.2,023.3,12.7,-001.3,0009.80,0007.88,0007.66
2023-10-29 12:03:00,SystemResetWarning,0836.6,5.00,000.00,021.8,020.5,000.0,030.2,023.2,12.7,-002.0,0009.83,0007.93,0007.72
2023-10-29 12:04:00,SystemResetWarning,0836.6,5.00,000.00,021.8,020.4,000.0,030.1,023.2,12.7,-002.0,0009.88,0008.00,0007.79
2023-10-29 12:05:00,SystemResetWarning,0836.6,5.00,000.00,021.7,020.4,000.0,030.1,023.2,12.7,-001.9,0009.95,0008.06,0007.85
2023-10-29 12:06:00,SystemResetWarning,0836.6,5.00,000.00,021.7,020.3,000.0,030.1,023.2,12.7,-002.0,0010.08,0008.13,0007.90
2023-10-29 12:07:00,SystemResetWarning,0836.6,5.00,000.00,021.7,020.3,000.0,030.1,023.2,12.7,-002.0,0010.05,0008.18,0007.96
2023-10-29 12:08:00,SystemResetWarning,0836.7,5.00,000.00,021.7,020.3,000.0,030.1,023.2,12.7,-002.2,0010.10,0008.22,0007.99
2023-10-29 12:09:00,SystemResetWarning,0836.6,5.00,000.00,021.7,020.2,000.0,030.1,023.1,12.7,0000.0,0010.13,0008.27,0008.03
2023-10-29 12:10:00,SystemResetWarning,0836.6,5.00,000.00,021.7,020.2,000.0,030.1,023.1,12.7,-001.8,0010.19,0008.32,0008.07
2023-10-29 12:11:00,SystemResetWarning,0836.6,5.00,000.00,021.7,020.2,000.0,030.1,023.1,12.7,-002.6,0010.24,0008.36,0008.10
2023-10-29 12:12:00,SystemResetWarning,0836.7,4.99,000.00,021.6,020.2,000.0,030.1,023.1,12.7,-002.2,0010.16,0008.37,0008.12
2023-10-29 12:13:00,SystemResetWarning,0836.7,4.99,000.00,021.6,020.2,000.0,030.1,023.1,12.7,-001.8,0010.12,0008.38,0008.14
2023-10-29 12:14:00,SystemResetWarning,0836.7,5.00,000.00,021.6,020.2,000.0,030.0,023.1,12.7,-001.3,0010.19,0008.42,0008.17
2023-10-29 12:15:00,SystemResetWarning,0836.8,5.01,000.00,021.7,020.4,000.0,030.0,023.3,12.7,-001.3,0010.28,0008.46,0008.20
2023-10-29 12:16:00,SystemResetWarning,0836.8,5.02,000.00,021.8,021.3,000.0,029.9,023.6,12.6,-001.9,0010.28,0008.46,0008.20
2023-10-29 12:17:00,SystemResetWarning,0836.8,4.97,000.00,021.9,021.7,000.0,029.9,023.7,12.5,-002.1,0010.20,0008.44,0008.21
2023-10-29 12:18:00,SystemResetWarning,0836.9,5.01,000.00,021.9,021.6,000.0,030.0,023.6,12.5,-002.3,0010.13,0008.41,0008.19
2023-10-29 12:19:00,SystemResetWarning,0836.8,5.01,000.00,021.9,021.4,000.0,030.1,023.6,12.5,-002.0,0010.06,0008.38,0008.18
2023-10-29 12:20:00,SystemResetWarning,0836.9,5.00,000.00,021.9,021.3,000.0,030.1,023.5,12.5,-001.8,0009.97,0008.33,0008.16
2023-10-29 12:21:00,SystemResetWarning,0836.9,4.99,000.00,021.9,021.1,000.0,030.1,023.4,12.5,-001.5,0009.91,0008.28,0008.11
2023-10-29 12:22:00,SystemResetWarning,0836.9,5.00,000.00,021.9,021.0,000.0,030.1,023.4,12.5,-001.2,0009.85,0008.23,0008.07
2023-10-29 12:23:00,SystemResetWarning,0836.9,5.01,000.00,021.9,020.9,000.0,030.1,023.4,12.5,-001.0,0009.86,0008.21,0008.02
2023-10-29 12:24:00,SystemResetWarning,0836.9,5.01,000.00,021.8,020.8,000.0,030.1,023.3,12.5,-000.9,0009.81,0008.17,0007.98
2023-10-29 12:25:00,SystemResetWarning,0837.0,5.01,000.00,021.8,020.7,000.0,030.2,023.3,12.5,-000.9,0009.84,0008.13,0007.92
2023-10-29 12:26:00,SystemResetWarning,0836.9,5.00,000.00,021.8,020.6,000.0,030.2,023.3,12.5,-001.1,0009.76,0008.07,0007.86
2023-10-29 12:27:00,SystemResetWarning,0837.0,5.00,000.00,021.8,020.6,000.0,030.2,023.3,12.5,-000.7,0009.66,0008.01,0007.81
2023-10-29 12:28:00,SystemResetWarning,0837.0,5.00,000.00,021.8,020.5,000.0,030.2,023.3,12.5,-000.7,0009.65,0007.96,0007.75
2023-10-29 12:29:00,SystemResetWarning,0836.9,4.99,000.00,021.8,020.5,000.0,030.2,023.2,12.5,-000.4,0009.67,0007.94,0007.71
2023-10-29 12:30:00,SystemResetWarning,0836.9,4.99,000.00,021.8,020.5,000.0,030.2,023.3,12.5,-000.3,0009.63,0007.90,0007.69
2023-10-29 12:31:00,SystemResetWarning,0836.8,5.00,000.00,021.8,020.4,000.0,030.1,023.3,12.5,-000.5,0009.62,0007.87,0007.66
2023-10-29 12:32:00,SystemResetWarning,0836.8,5.00,000.00,021.8,020.4,000.0,030.1,023.3,12.5,-000.4,0009.64,0007.87,0007.64
2023-10-29 12:33:00,SystemResetWarning,0836.9,5.00,000.00,021.8,020.4,000.0,030.1,023.2,12.5,0000.0,0009.62,0007.85,0007.62
2023-10-29 12:34:00,SystemResetWarning,0836.9,5.00,000.00,021.7,020.3,000.0,030.1,023.2,12.6,-000.0,0009.61,0007.84,0007.61
2023-10-29 12:35:00,SystemResetWarning,0836.9,5.00,000.00,021.7,020.3,000.0,030.1,023.2,12.6,-000.2,0009.61,0007.83,0007.61
2023-10-29 12:36:00,SystemResetWarning,0836.8,4.99,000.00,021.7,020.3,000.0,030.1,023.2,12.6,-000.7,0009.57,0007.81,0007.60
2023-10-29 12:37:00,SystemResetWarning,0836.8,5.00,000.00,021.7,020.3,000.0,030.1,023.1,12.6,-000.1,0009.48,0007.78,0007.59
2023-10-29 12:38:00,SystemResetWarning,0836.8,4.99,000.00,021.7,020.2,000.0,030.1,023.1,12.6,-000.3,0009.54,0007.78,0007.58
2023-10-29 12:39:00,SystemResetWarning,0836.9,5.00,000.00,021.7,020.2,000.0,030.1,023.1,12.6,0000.0,0009.54,0007.77,0007.57
2023-10-29 12:40:00,SystemResetWarning,0836.9,5.00,000.00,021.7,020.2,000.0,030.1,023.1,12.6,-000.6,0009.48,0007.75,0007.55
2023-10-29 12:41:00,SystemResetWarning,0837.0,5.00,000.00,021.7,020.2,000.0,030.1,023.1,12.6,-000.9,0009.49,0007.74,0007.53
2023-10-29 12:42:00,SystemResetWarning,0837.0,5.00,000.00,021.6,020.2,000.0,030.1,023.1,12.7,-000.7,0009.48,0007.72,0007.51
2023-10-29 12:43:00,SystemResetWarning,0837.0,5.00,000.00,021.6,020.2,000.0,030.0,023.1,12.7,-000.7,0009.37,0007.64,0007.44
2023-10-29 12:44:00,SystemResetWarning,0837.0,5.00,000.00,021.6,020.2,000.0,030.0,023.1,12.7,-000.2,0009.23,0007.50,0007.31
2023-10-29 12:45:00,SystemResetWarning,0837.0,5.00,000.00,021.6,020.2,000.0,030.0,023.1,12.7,0000.0,0009.11,0007.38,0007.20
2023-10-29 12:46:00,SystemResetWarning,0837.1,5.00,000.00,021.6,020.2,000.0,030.0,023.1,12.7,0000.0,0008.98,0007.26,0007.09
2023-10-29 12:47:00,SystemResetWarning,0837.1,5.00,000.00,021.7,020.8,000.0,029.9,023.4,12.7,0000.0,0008.89,0007.15,0006.98
2023-10-29 12:48:00,SystemResetWarning,0837.1,5.00,000.00,021.8,021.5,000.0,029.9,023.7,12.6,0000.0,0008.79,0007.03,0006.87
2023-10-29 12:49:00,SystemResetWarning,0837.1,4.99,000.00,021.9,021.6,000.0,030.0,023.7,12.5,0000.0,0008.59,0006.90,0006.75
2023-10-29 12:50:00,SystemResetWarning,0837.1,4.99,000.00,021.9,021.4,000.0,030.0,023.6,12.5,0000.0,0008.45,0006.78,0006.65
2023-10-29 12:51:00,SystemResetWarning,0837.0,5.00,000.00,021.9,021.3,000.0,030.0,023.5,12.5,0000.0,0008.36,0006.69,0006.57
2023-10-29 12:52:00,SystemResetWarning,0837.1,5.01,000.00,021.9,021.2,000.0,030.1,023.4,12.5,0000.0,0008.24,0006.58,0006.47
2023-10-29 12:53:00,SystemResetWarning,0837.1,5.00,000.00,021.8,021.0,000.0,030.1,023.4,12.5,0000.0,0008.15,0006.47,0006.37
2023-10-29 12:54:00,SystemResetWarning,0837.1,5.00,000.00,021.8,020.9,000.0,030.1,023.4,12.5,0000.0,0008.10,0006.42,0006.32
2023-10-29 12:55:00,SystemResetWarning,0837.1,5.00,000.00,021.8,020.8,000.0,030.1,023.3,12.5,0000.0,0008.11,0006.45,0006.36
2023-10-29 12:56:00,SystemResetWarning,0837.1,4.99,000.00,021.8,020.7,000.0,030.1,023.3,12.5,0000.0,0008.13,0006.48,0006.38
2023-10-29 12:57:00,SystemResetWarning,0837.2,4.99,000.00,021.8,020.6,000.0,030.1,023.3,12.5,0000.0,0008.15,0006.49,0006.39
2023-10-29 12:58:00,SystemResetWarning,0837.2,5.00,000.00,021.8,020.5,000.0,030.1,023.2,12.5,0000.0,0008.16,0006.50,0006.40
2023-10-29 12:59:00,SystemResetWarning,0837.2,5.01,000.00,021.7,020.5,000.0,030.1,023.2,12.5,0000.0,0008.16,0006.49,0006.39
